DW6860 Weather Reports


Display with metric or nautical units.
time (UTC)temp
F
wind
direction
speed
MPH
gust
MPH
rain 1hr
in
rain 24hr
in
rain mn
in
humidity
%
barometer
mb
20260510130518 68 38 4.0 12.0 0.00 0.00 0.00 48 1011.9
20260510130515 68 35 4.0 12.0 0.00 0.00 0.00 47 1011.9
20260510130041 68 0 6.0 12.0 0.00 0.00 0.00 47 1012.1
20260510130037 68 33 6.0 12.0 0.00 0.00 0.00 47 1012.1
20260510125519 68 19 7.0 12.0 0.00 0.00 0.00 46 1012.1
20260510125515 68 22 7.0 12.0 0.00 0.00 0.00 46 1012.2
20260510125016 68 9 7.0 13.0 0.00 0.00 0.00 47 1012.3
20260510125009 69 344 7.0 13.0 0.00 0.00 0.00 47 1012.3
20260510124515 68 15 7.0 14.0 0.00 0.00 0.00 47 1012.4
20260510124509 68 15 7.0 14.0 0.00 0.00 0.00 47 1012.3
20260510124016 68 21 6.0 14.0 0.00 0.00 0.00 46 1012.4
20260510124007 68 35 6.0 14.0 0.00 0.00 0.00 46 1012.3
20260510123525 68 40 7.0 17.0 0.00 0.00 0.00 45 1012.4
20260510123515 68 21 7.0 17.0 0.00 0.00 0.00 45 1012.4
20260510123019 68 29 8.0 17.0 0.00 0.00 0.00 46 1012.4
20260510123016 68 24 8.0 17.0 0.00 0.00 0.00 45 1012.4
20260510122515 68 25 7.0 14.0 0.00 0.00 0.00 45 1012.5
20260510122513 68 13 7.0 14.0 0.00 0.00 0.00 45 1012.5
20260510122229 68 12 6.0 13.0 0.00 0.00 0.00 45 1012.5
20260510122159 68 0 6.0 13.0 0.00 0.00 0.00 45 1012.5
20260510122142 68 17 6.0 12.0 0.00 0.00 0.00 45 1012.7
20260510122047 68 19 6.0 14.0 0.00 0.00 0.00 46 1012.4
20260510122016 68 26 6.0 14.0 0.00 0.00 0.00 46 1012.5
20260510121536 68 21 6.0 13.0 0.00 0.00 0.00 45 1012.5
20260510121016 68 18 6.0 13.0 0.00 0.00 0.00 45 1012.6
20260510120536 68 20 5.0 12.0 0.00 0.00 0.00 45 1012.8
20260510120028 69 11 5.0 13.0 0.00 0.00 0.00 44 1012.7
20260510120016 69 16 5.0 13.0 0.00 0.00 0.00 44 1012.7
20260510115516 69 19 5.0 13.0 0.00 0.00 0.00 45 1012.7
20260510115510 69 42 5.0 13.0 0.00 0.00 0.00 45 1012.7
20260510115441 67 28 8.0 14.0 0.00 0.00 0.00 47 1012.7
20260510115410 67 355 7.0 14.0 0.00 0.00 0.00 45 1012.8
20260510115355 68 51 6.0 14.0 0.00 0.00 0.00 46 1012.8
20260510115131 68 9 7.0 14.0 0.00 0.00 0.00 46 1012.6
20260510115015 68 25 7.0 14.0 0.00 0.00 0.00 46 1012.6
20260510114515 67 20 8.0 14.0 0.00 0.00 0.00 47 1012.7
20260510114015 68 15 7.0 14.0 0.00 0.00 0.00 45 1012.8
20260510113536 68 16 6.0 14.0 0.00 0.00 0.00 45 1012.9
20260510113017 67 14 7.0 15.0 0.00 0.00 0.00 47 1013.0
20260510113006 67 36 7.0 15.0 0.00 0.00 0.00 47 1012.9
20260510112515 67 11 5.0 15.0 0.00 0.00 0.00 47 1013.0
20260510112505 67 19 5.0 15.0 0.00 0.00 0.00 47 1012.9
20260510112156 67 9 6.0 15.0 0.00 0.00 0.00 47 1013.1
20260510112020 67 30 6.0 15.0 0.00 0.00 0.00 48 1013.0
20260510112017 67 19 6.0 15.0 0.00 0.00 0.00 48 1013.0
20260510111536 67 25 6.0 15.0 0.00 0.00 0.00 47 1013.0
20260510111016 67 24 6.0 14.0 0.00 0.00 0.00 47 1013.0
20260510111000 67 26 6.0 14.0 0.00 0.00 0.00 47 1012.9
20260510110516 67 23 7.0 14.0 0.00 0.00 0.00 47 1013.1
20260510110500 67 41 7.0 14.0 0.00 0.00 0.00 47 1013.1
20260510110016 67 18 6.0 14.0 0.00 0.00 0.00 47 1013.2
20260510110001 67 13 6.0 14.0 0.00 0.00 0.00 47 1013.2
20260510105742 67 63 6.0 12.0 0.00 0.00 0.00 47 1013.4
20260510105733 66 51 7.0 14.0 0.00 0.00 0.00 48 1013.2
20260510105547 67 342 6.0 13.0 0.00 0.00 0.00 48 1013.2
20260510105536 67 22 5.0 13.0 0.00 0.00 0.00 48 1013.2
20260510105036 66 27 6.0 12.0 0.00 0.00 0.00 47 1013.2
20260510104536 66 17 7.0 14.0 0.00 0.00 0.00 47 1013.3
20260510104017 66 18 7.0 14.0 0.00 0.00 0.00 48 1013.4
20260510104001 66 15 7.0 14.0 0.00 0.00 0.00 48 1013.4
20260510103515 66 24 7.0 14.0 0.00 0.00 0.00 47 1013.5
20260510103511 66 38 7.0 14.0 0.00 0.00 0.00 47 1013.4
20260510103015 66 25 7.0 17.0 0.00 0.00 0.00 47 1013.5
20260510102958 66 16 7.0 17.0 0.00 0.00 0.00 47 1013.5
20260510102515 66 20 7.0 17.0 0.00 0.00 0.00 48 1013.6
20260510102501 66 38 7.0 17.0 0.00 0.00 0.00 48 1013.5
20260510102016 66 16 7.0 16.0 0.00 0.00 0.00 49 1013.5
20260510102003 66 19 7.0 16.0 0.00 0.00 0.00 49 1013.5
20260510101515 66 21 6.0 16.0 0.00 0.00 0.00 49 1013.6
20260510101503 66 5 6.0 16.0 0.00 0.00 0.00 49 1013.6
20260510101217 65 38 5.0 12.0 0.00 0.00 0.00 49 1013.6
20260510101016 65 24 5.0 12.0 0.00 0.00 0.00 49 1013.7
20260510100611 65 350 6.0 14.0 0.00 0.00 0.00 51 1013.7
20260510100515 66 22 5.0 11.0 0.00 0.00 0.00 51 1013.6
20260510100508 65 10 5.0 11.0 0.00 0.00 0.00 51 1013.6
20260510100016 65 17 6.0 13.0 0.00 0.00 0.00 51 1013.7
20260510095515 65 14 6.0 14.0 0.00 0.00 0.00 51 1013.7
20260510095450 65 346 6.0 14.0 0.00 0.00 0.00 51 1013.7
20260510095015 64 17 6.0 14.0 0.00 0.00 0.00 51 1013.7
20260510094953 65 9 6.0 12.0 0.00 0.00 0.00 51 1013.7
20260510094515 64 27 6.0 14.0 0.00 0.00 0.00 52 1013.9
20260510094455 64 321 6.0 14.0 0.00 0.00 0.00 52 1013.8
20260510094017 64 29 6.0 14.0 0.00 0.00 0.00 52 1013.7
20260510094003 64 40 6.0 14.0 0.00 0.00 0.00 52 1013.7
20260510093515 64 25 7.0 14.0 0.00 0.00 0.00 53 1013.7
20260510093459 64 9 7.0 14.0 0.00 0.00 0.00 54 1013.7
20260510093018 63 23 7.0 14.0 0.00 0.00 0.00 53 1013.9
20260510092957 63 55 7.0 14.0 0.00 0.00 0.00 53 1013.9
20260510092515 63 20 6.0 12.0 0.00 0.00 0.00 54 1014.0
20260510092449 63 35 6.0 12.0 0.00 0.00 0.00 54 1013.9
20260510092015 63 22 5.0 12.0 0.00 0.00 0.00 54 1014.0
20260510091953 63 60 5.0 12.0 0.00 0.00 0.00 54 1013.9
20260510091740 62 40 6.0 15.0 0.00 0.00 0.00 56 1014.1
20260510091536 63 336 5.0 13.0 0.00 0.00 0.00 55 1014.2
20260510091515 63 25 5.0 13.0 0.00 0.00 0.00 55 1014.1
20260510091016 62 23 6.0 15.0 0.00 0.00 0.00 56 1014.2
20260510090515 62 24 6.0 15.0 0.00 0.00 0.00 55 1014.2
20260510090453 62 9 6.0 15.0 0.00 0.00 0.00 55 1014.2
20260510090016 61 26 6.0 13.0 0.00 0.00 0.00 56 1014.3
20260510085948 61 28 6.0 13.0 0.00 0.00 0.00 56 1014.2
20260510085515 61 20 7.0 15.0 0.00 0.00 0.00 56 1014.3
20260510085453 61 34 7.0 15.0 0.00 0.00 0.00 56 1014.4
20260510085055 60 59 7.0 16.0 0.00 0.00 0.00 56 1014.2
20260510085015 61 22 7.0 16.0 0.00 0.00 0.00 56 1014.2
20260510084959 61 355 7.0 16.0 0.00 0.00 0.00 56 1014.2
20260510084515 60 29 7.0 16.0 0.00 0.00 0.00 56 1014.3
20260510084015 60 25 6.0 14.0 0.00 0.00 0.00 56 1014.2
20260510083946 60 86 6.0 14.0 0.00 0.00 0.00 56 1014.2
20260510083515 60 27 6.0 14.0 0.00 0.00 0.00 56 1014.4
20260510083445 60 16 6.0 14.0 0.00 0.00 0.00 57 1014.3
20260510083015 60 27 6.0 13.0 0.00 0.00 0.00 58 1014.5
20260510082945 60 22 6.0 13.0 0.00 0.00 0.00 57 1014.4
20260510082515 59 26 6.0 12.0 0.00 0.00 0.00 57 1014.5
20260510082441 59 355 6.0 12.0 0.00 0.00 0.00 57 1014.5
20260510082016 59 27 6.0 14.0 0.00 0.00 0.00 57 1014.5
20260510081936 59 53 6.0 14.0 0.00 0.00 0.00 57 1014.5
20260510081515 59 19 5.0 14.0 0.00 0.00 0.00 59 1014.6
20260510081440 59 27 5.0 14.0 0.00 0.00 0.00 59 1014.6
20260510081015 59 17 4.0 11.0 0.00 0.00 0.00 61 1014.6
20260510080942 59 26 4.0 9.0 0.00 0.00 0.00 61 1014.5
20260510080638 58 9 6.0 13.0 0.00 0.00 0.00 61 1014.6
20260510080515 58 15 6.0 13.0 0.00 0.00 0.00 61 1014.6
20260510080513 58 28 6.0 13.0 0.00 0.00 0.00 61 1014.6
20260510080016 58 16 6.0 13.0 0.00 0.00 0.00 61 1014.5
20260510075515 58 18 7.0 16.0 0.00 0.00 0.00 61 1014.7
20260510075440 58 25 7.0 16.0 0.00 0.00 0.00 62 1014.6
20260510075036 58 17 7.0 16.0 0.00 0.00 0.00 62 1014.6
20260510074943 58 32 8.0 16.0 0.00 0.00 0.00 62 1014.6
20260510074514 57 14 7.0 14.0 0.00 0.00 0.00 62 1014.6
20260510074438 57 13 7.0 14.0 0.00 0.00 0.00 63 1014.6
20260510074108 57 17 6.0 13.0 0.00 0.00 0.00 64 1014.7
20260510074016 57 19 6.0 14.0 0.00 0.00 0.00 64 1014.6
20260510073952 57 15 6.0 14.0 0.00 0.00 0.00 64 1014.6
20260510073536 57 27 6.0 13.0 0.00 0.00 0.00 64 1014.7
20260510073015 56 26 7.0 14.0 0.00 0.00 0.00 65 1014.8
20260510072934 56 62 7.0 14.0 0.00 0.00 0.00 65 1014.7
20260510072536 56 19 6.0 14.0 0.00 0.00 0.00 65 1014.8
20260510072435 56 18 6.0 14.0 0.00 0.00 0.00 65 1014.7
20260510072036 56 21 5.0 14.0 0.00 0.00 0.00 67 1014.7
20260510071929 56 5 5.0 15.0 0.00 0.00 0.00 67 1014.7
20260510071656 55 39 6.0 11.0 0.00 0.00 0.00 70 1014.8
20260510071646 55 15 7.0 16.0 0.00 0.00 0.00 70 1014.8
20260510071515 56 24 6.0 15.0 0.00 0.00 0.00 68 1014.8
20260510071511 56 40 6.0 15.0 0.00 0.00 0.00 68 1014.8
20260510071015 55 22 6.0 15.0 0.00 0.00 0.00 69 1014.8
20260510070514 55 23 7.0 16.0 0.00 0.00 0.00 70 1014.8
20260510070015 54 22 7.0 16.0 0.00 0.00 0.00 72 1014.8
20260510065923 54 347 7.0 16.0 0.00 0.00 0.00 73 1014.8
20260510065514 54 21 6.0 14.0 0.00 0.00 0.00 76 1014.8
20260510065435 54 23 6.0 14.0 0.00 0.00 0.00 76 1014.7
20260510065015 54 22 5.0 13.0 0.00 0.00 0.00 78 1014.8
20260510064929 54 5 5.0 13.0 0.00 0.00 0.00 78 1014.8
20260510064538 53 30 5.0 13.0 0.00 0.00 0.00 80 1014.8
20260510064515 54 18 5.0 13.0 0.00 0.00 0.00 79 1014.9
20260510064447 54 5 5.0 13.0 0.00 0.00 0.00 79 1014.8
20260510064015 53 16 5.0 13.0 0.00 0.00 0.00 80 1014.9
20260510063535 53 17 5.0 11.0 0.00 0.00 0.00 81 1015.0
20260510063430 53 340 5.0 11.0 0.00 0.00 0.00 82 1014.9
20260510063038 53 15 5.0 11.0 0.00 0.00 0.00 82 1014.9
20260510062927 53 24 5.0 11.0 0.00 0.00 0.00 82 1014.9
20260510062515 53 14 5.0 9.0 0.00 0.00 0.00 83 1014.9
20260510062421 53 5 4.0 9.0 0.00 0.00 0.00 83 1014.9
20260510062015 52 18 4.0 9.0 0.00 0.00 0.00 84 1014.9
20260510061919 52 338 5.0 9.0 0.00 0.00 0.00 84 1014.8
20260510061515 52 16 5.0 10.0 0.00 0.00 0.00 85 1014.7
20260510061459 52 18 4.0 10.0 0.00 0.00 0.00 85 1014.9
20260510061423 52 24 5.0 10.0 0.00 0.00 0.00 85 1014.8
20260510061015 52 16 4.0 10.0 0.00 0.00 0.00 85 1014.9
20260510060515 52 22 4.0 8.0 0.00 0.00 0.00 86 1014.9
20260510060424 52 24 4.0 8.0 0.00 0.00 0.00 86 1014.9
20260510060016 52 18 4.0 9.0 0.00 0.00 0.00 86 1014.9
20260510055918 52 16 4.0 11.0 0.00 0.00 0.00 86 1014.9
20260510055515 52 17 4.0 11.0 0.00 0.00 0.00 86 1014.8
20260510055414 51 25 4.0 11.0 0.00 0.00 0.00 87 1014.8
20260510055015 51 22 4.0 11.0 0.00 0.00 0.00 87 1014.7
20260510054919 51 24 4.0 8.0 0.00 0.00 0.00 87 1014.8
20260510054515 51 21 4.0 10.0 0.00 0.00 0.00 87 1014.8
20260510054414 51 23 4.0 10.0 0.00 0.00 0.00 87 1014.8
20260510054037 51 18 4.0 10.0 0.00 0.00 0.00 87 1014.8
20260510053913 51 25 4.0 10.0 0.00 0.00 0.00 87 1014.7
20260510053514 51 15 3.0 9.0 0.00 0.00 0.00 88 1014.7
20260510053418 51 0 3.0 9.0 0.00 0.00 0.00 88 1014.7
20260510053344 51 21 3.0 9.0 0.00 0.00 0.00 88 1014.8
20260510053036 51 16 3.0 9.0 0.00 0.00 0.00 87 1014.8
20260510052515 50 16 3.0 7.0 0.00 0.00 0.00 88 1014.8
20260510052425 51 16 3.0 7.0 0.00 0.00 0.00 88 1014.7
20260510052015 50 17 3.0 9.0 0.00 0.00 0.00 88 1014.8
20260510051926 50 13 4.0 9.0 0.00 0.00 0.00 88 1014.7
20260510051515 50 18 4.0 9.0 0.00 0.00 0.00 88 1014.8
20260510051423 50 28 4.0 9.0 0.00 0.00 0.00 88 1014.7
20260510051036 50 16 3.0 9.0 0.00 0.00 0.00 88 1014.8
20260510050928 50 327 3.0 9.0 0.00 0.00 0.00 88 1014.8
20260510050535 50 19 3.0 9.0 0.00 0.00 0.00 88 1014.7
20260510050419 50 16 3.0 9.0 0.00 0.00 0.00 88 1014.7
20260510050015 50 20 3.0 9.0 0.00 0.00 0.00 88 1014.8
20260510045915 50 5 3.0 9.0 0.00 0.00 0.00 88 1014.8
20260510045514 50 14 2.0 6.0 0.00 0.00 0.00 88 1014.6
20260510045418 50 9 3.0 5.0 0.00 0.00 0.00 88 1014.7
20260510045015 50 15 3.0 6.0 0.00 0.00 0.00 88 1014.8
20260510044907 50 311 3.0 6.0 0.00 0.00 0.00 88 1014.8
20260510044514 50 19 3.0 6.0 0.00 0.00 0.00 88 1014.8
20260510044415 50 19 3.0 6.0 0.00 0.00 0.00 88 1014.8
20260510044036 50 17 3.0 6.0 0.00 0.00 0.00 87 1014.8
20260510043910 50 15 3.0 6.0 0.00 0.00 0.00 87 1014.8
20260510043537 50 15 2.0 6.0 0.00 0.00 0.00 87 1014.9
20260510043409 50 350 2.0 6.0 0.00 0.00 0.00 87 1014.9
20260510043015 50 15 2.0 6.0 0.00 0.00 0.00 87 1014.8
20260510042911 50 24 2.0 6.0 0.00 0.00 0.00 87 1014.8
20260510042515 50 7 2.0 4.0 0.00 0.00 0.00 87 1014.8
20260510042407 50 23 2.0 4.0 0.00 0.00 0.00 87 1014.8
20260510042015 50 1 2.0 4.0 0.00 0.00 0.00 87 1014.8
20260510041905 50 24 2.0 3.0 0.00 0.00 0.00 87 1014.8
20260510041514 50 1 2.0 4.0 0.00 0.00 0.00 87 1014.8
20260510041405 50 355 2.0 4.0 0.00 0.00 0.00 87 1014.8
20260510041015 50 2 1.0 4.0 0.00 0.00 0.00 86 1014.8
20260510040904 50 9 1.0 4.0 0.00 0.00 0.00 86 1014.8
20260510040515 50 355 1.0 4.0 0.00 0.00 0.00 86 1014.8
20260510040410 50 355 1.0 3.0 0.00 0.00 0.00 86 1014.8
20260510040016 50 356 1.0 3.0 0.00 0.00 0.00 86 1014.9
20260510035904 50 355 1.0 3.0 0.00 0.00 0.00 86 1014.8
20260510035514 50 1 1.0 3.0 0.00 0.00 0.00 86 1014.7
20260510035405 50 346 1.0 3.0 0.00 0.00 0.00 86 1014.7
20260510035015 50 360 1.0 4.0 0.00 0.00 0.00 86 1014.8
20260510034952 50 41 1.0 4.0 0.00 0.00 0.00 86 1014.7
20260510034912 50 5 1.0 4.0 0.00 0.00 0.00 86 1014.8
20260510034514 50 2 1.0 4.0 0.00 0.00 0.00 86 1014.8
20260510034015 50 12 2.0 4.0 0.00 0.00 0.00 85 1014.8
20260510033843 50 344 2.0 4.0 0.00 0.00 0.00 85 1014.7
20260510033515 50 17 2.0 4.0 0.00 0.00 0.00 85 1014.8
20260510033345 50 0 2.0 4.0 0.00 0.00 0.00 85 1014.8
20260510033015 50 7 2.0 4.0 0.00 0.00 0.00 85 1014.8
20260510032844 50 19 1.0 4.0 0.00 0.00 0.00 85 1014.8
20260510032514 50 357 1.0 3.0 0.00 0.00 0.00 85 1014.8
20260510032340 51 348 1.0 3.0 0.00 0.00 0.00 85 1014.8
20260510032015 51 5 1.0 3.0 0.00 0.00 0.00 84 1014.9
20260510031906 51 25 1.0 4.0 0.00 0.00 0.00 84 1014.8
20260510031842 51 350 1.0 3.0 0.00 0.00 0.00 84 1014.8
20260510031515 51 1 1.0 4.0 0.00 0.00 0.00 84 1014.9
20260510031015 51 360 1.0 4.0 0.00 0.00 0.00 84 1014.9
20260510030845 51 355 1.0 4.0 0.00 0.00 0.00 84 1014.7
20260510030515 51 3 1.0 4.0 0.00 0.00 0.00 84 1014.8
20260510030340 51 24 1.0 4.0 0.00 0.00 0.00 84 1014.8
20260510030036 51 2 2.0 4.0 0.00 0.00 0.00 83 1014.8
20260510025857 51 24 1.0 4.0 0.00 0.00 0.00 83 1014.8
20260510025846 51 350 2.0 4.0 0.00 0.00 0.00 83 1014.8
20260510025515 51 5 1.0 4.0 0.00 0.00 0.00 83 1014.9
20260510025014 51 7 1.0 3.0 0.00 0.00 0.00 83 1014.9
20260510024847 51 31 1.0 3.0 0.00 0.00 0.00 83 1014.8
20260510024515 51 6 1.0 3.0 0.00 0.00 0.00 83 1014.9
20260510024347 51 17 1.0 3.0 0.00 0.00 0.00 83 1015.0
20260510024015 51 6 1.0 3.0 0.00 0.00 0.00 83 1014.8
20260510023840 51 342 1.0 3.0 0.00 0.00 0.00 83 1014.8
20260510023514 51 16 2.0 4.0 0.00 0.00 0.00 82 1014.9
20260510023353 51 11 2.0 7.0 0.00 0.00 0.00 82 1014.8
20260510023341 51 19 2.0 7.0 0.00 0.00 0.00 82 1014.8
20260510023015 51 18 2.0 7.0 0.00 0.00 0.00 82 1014.8
20260510022514 52 18 2.0 7.0 0.00 0.00 0.00 82 1014.9
20260510022333 52 27 2.0 5.0 0.00 0.00 0.00 82 1014.8
20260510022326 51 15 2.0 5.0 0.00 0.00 0.00 82 1014.8
20260510022015 52 21 2.0 5.0 0.00 0.00 0.00 82 1014.9
20260510021515 52 22 1.0 4.0 0.00 0.00 0.00 81 1014.9
20260510021448 52 355 1.0 3.0 0.00 0.00 0.00 81 1015.0
20260510021354 52 29 1.0 3.0 0.00 0.00 0.00 81 1014.9
20260510021015 52 15 1.0 3.0 0.00 0.00 0.00 81 1014.9
20260510020824 52 16 1.0 3.0 0.00 0.00 0.00 81 1014.9
20260510020515 52 10 1.0 3.0 0.00 0.00 0.00 81 1015.0
20260510020015 52 5 1.0 3.0 0.00 0.00 0.00 80 1015.2
20260510015855 52 9 1.0 4.0 0.00 0.00 0.00 80 1015.2
20260510015818 52 9 1.0 3.0 0.00 0.00 0.00 80 1015.1
20260510015514 52 6 1.0 3.0 0.00 0.00 0.00 80 1015.1
20260510015016 52 1 1.0 4.0 0.00 0.00 0.00 80 1015.3
20260510014847 52 355 1.0 3.0 0.00 0.00 0.00 80 1015.3
20260510014800 52 17 1.0 4.0 0.00 0.00 0.00 80 1015.2
20260510014535 52 1 1.0 4.0 0.00 0.00 0.00 80 1015.3
20260510014014 52 8 1.0 3.0 0.00 0.00 0.00 80 1015.4
20260510013752 52 17 1.0 3.0 0.00 0.00 0.00 80 1015.3
20260510013536 52 358 1.0 3.0 0.00 0.00 0.00 80 1015.4
20260510013256 53 14 1.0 4.0 0.00 0.00 0.00 80 1015.2
20260510013036 52 6 1.0 4.0 0.00 0.00 0.00 80 1015.2
20260510012747 53 348 1.0 4.0 0.00 0.00 0.00 80 1015.1
20260510012535 53 17 2.0 4.0 0.00 0.00 0.00 80 1015.2
20260510012243 53 27 2.0 3.0 0.00 0.00 0.00 80 1015.1
20260510012015 53 17 2.0 4.0 0.00 0.00 0.00 79 1015.1
20260510011752 53 11 2.0 4.0 0.00 0.00 0.00 79 1015.1
20260510011536 53 18 2.0 4.0 0.00 0.00 0.00 79 1015.1
20260510011240 53 15 2.0 4.0 0.00 0.00 0.00 79 1015.1
20260510011015 53 19 2.0 4.0 0.00 0.00 0.00 79 1015.1
20260510010737 53 17 2.0 4.0 0.00 0.00 0.00 79 1015.1
20260510010536 53 19 1.0 4.0 0.00 0.00 0.00 79 1015.2
20260510010240 53 26 1.0 4.0 0.00 0.00 0.00 79 1015.2
20260510010015 53 20 1.0 4.0 0.00 0.00 0.00 79 1015.3
20260510005819 53 17 2.0 5.0 0.00 0.00 0.00 78 1015.2
20260510005746 53 20 2.0 5.0 0.00 0.00 0.00 79 1015.2
20260510005514 53 16 2.0 5.0 0.00 0.00 0.00 78 1015.3
20260510005016 53 18 2.0 5.0 0.00 0.00 0.00 78 1015.3
20260510004733 53 355 2.0 5.0 0.00 0.00 0.00 78 1015.2
20260510004516 53 23 2.0 5.0 0.00 0.00 0.00 78 1015.2
20260510004229 53 36 2.0 4.0 0.00 0.00 0.00 77 1015.1
20260510004015 53 12 2.0 5.0 0.00 0.00 0.00 77 1015.4
20260510003726 53 11 2.0 5.0 0.00 0.00 0.00 77 1015.3
20260510003515 53 6 2.0 5.0 0.00 0.00 0.00 77 1015.3
20260510003237 53 345 1.0 5.0 0.00 0.00 0.00 77 1015.4
20260510003015 53 6 1.0 3.0 0.00 0.00 0.00 76 1015.3
20260510002738 54 28 1.0 4.0 0.00 0.00 0.00 76 1015.4
20260510002726 53 0 1.0 3.0 0.00 0.00 0.00 76 1015.4
20260510002515 54 358 1.0 3.0 0.00 0.00 0.00 76 1015.5
20260510002016 54 350 1.0 4.0 0.00 0.00 0.00 76 1015.5
20260510001724 54 350 1.0 4.0 0.00 0.00 0.00 75 1015.5
20260510001514 54 352 1.0 4.0 0.00 0.00 0.00 75 1015.4
20260510001258 54 355 1.0 4.0 0.00 0.00 0.00 75 1015.3
20260510001234 54 5 1.0 2.0 0.00 0.00 0.00 75 1015.4
20260510001015 54 353 1.0 3.0 0.00 0.00 0.00 75 1015.4
20260510000515 54 351 1.0 4.0 0.00 0.00 0.00 75 1015.3
20260510000256 54 326 1.0 3.0 0.00 0.00 0.00 74 1015.4
20260510000227 54 0 1.0 4.0 0.00 0.00 0.00 74 1015.4
20260510000016 54 358 1.0 4.0 0.00 0.00 0.00 74 1015.4
20260509235514 54 3 1.0 3.0 0.00 0.00 0.00 74 1015.4
20260509235226 54 9 1.0 3.0 0.00 0.00 0.00 74 1015.5
20260509235015 54 1 1.0 3.0 0.00 0.00 0.00 74 1015.6
20260509234723 55 5 1.0 3.0 0.00 0.00 0.00 74 1015.5
20260509234535 54 6 1.0 3.0 0.00 0.00 0.00 74 1015.5
20260509234452 55 17 1.0 4.0 0.00 0.00 0.00 73 1015.5
20260509234015 55 12 1.0 4.0 0.00 0.00 0.00 73 1015.6
20260509233823 55 10 1.0 4.0 0.00 0.00 0.00 73 1015.5
20260509233735 55 355 1.0 4.0 0.00 0.00 0.00 73 1015.5
20260509233514 55 16 1.0 4.0 0.00 0.00 0.00 73 1015.6
20260509233016 55 17 1.0 4.0 0.00 0.00 0.00 72 1015.6
20260509232708 55 14 1.0 3.0 0.00 0.00 0.00 72 1015.6
20260509232535 55 16 1.0 4.0 0.00 0.00 0.00 72 1015.5
20260509232213 55 10 1.0 4.0 0.00 0.00 0.00 72 1015.5
20260509232014 55 19 1.0 4.0 0.00 0.00 0.00 72 1015.5
20260509231722 55 24 1.0 4.0 0.00 0.00 0.00 71 1015.5
20260509231515 55 30 1.0 4.0 0.00 0.00 0.00 71 1015.6
20260509231212 55 40 0.0 2.0 0.00 0.00 0.00 71 1015.6
20260509231014 55 30 0.0 2.0 0.00 0.00 0.00 71 1015.7
20260509230724 55 40 0.0 2.0 0.00 0.00 0.00 70 1015.7
20260509230514 55 20 0.0 2.0 0.00 0.00 0.00 70 1015.7
20260509230212 56 340 0.0 2.0 0.00 0.00 0.00 70 1015.7
20260509230015 56 25 0.0 2.0 0.00 0.00 0.00 69 1015.7
20260509225705 56 25 1.0 2.0 0.00 0.00 0.00 69 1015.7
20260509225536 56 22 0.0 3.0 0.00 0.00 0.00 69 1015.8
20260509225212 56 19 1.0 3.0 0.00 0.00 0.00 69 1015.8
20260509225015 56 17 0.0 3.0 0.00 0.00 0.00 69 1015.8
20260509224710 56 18 0.0 3.0 0.00 0.00 0.00 69 1015.7
20260509224514 56 356 1.0 3.0 0.00 0.00 0.00 68 1015.8
20260509224215 56 344 1.0 3.0 0.00 0.00 0.00 68 1015.8
20260509224014 56 1 1.0 4.0 0.00 0.00 0.00 68 1015.7
20260509223716 56 355 1.0 4.0 0.00 0.00 0.00 68 1015.7
20260509223514 56 14 2.0 4.0 0.00 0.00 0.00 68 1015.7
20260509223223 56 15 2.0 4.0 0.00 0.00 0.00 67 1015.7
20260509223211 56 0 2.0 4.0 0.00 0.00 0.00 68 1015.7
20260509223036 56 20 2.0 4.0 0.00 0.00 0.00 67 1015.7
20260509222514 56 16 2.0 4.0 0.00 0.00 0.00 67 1015.7
20260509222257 57 22 1.0 3.0 0.00 0.00 0.00 66 1015.6
20260509222222 56 20 2.0 4.0 0.00 0.00 0.00 66 1015.7
20260509222015 56 13 1.0 3.0 0.00 0.00 0.00 66 1015.8
20260509221515 57 19 1.0 3.0 0.00 0.00 0.00 66 1015.7
20260509221211 57 29 1.0 3.0 0.00 0.00 0.00 65 1015.7
20260509221015 57 12 1.0 3.0 0.00 0.00 0.00 65 1015.7
20260509220738 57 21 1.0 3.0 0.00 0.00 0.00 64 1015.7
20260509220657 57 355 1.0 3.0 0.00 0.00 0.00 64 1015.6
20260509220515 57 359 1.0 3.0 0.00 0.00 0.00 64 1015.8
20260509220043 57 8 1.0 3.0 0.00 0.00 0.00 64 1015.7
20260509215715 57 0 1.0 3.0 0.00 0.00 0.00 64 1015.6
20260509215535 57 22 1.0 3.0 0.00 0.00 0.00 63 1015.7
20260509215205 58 38 1.0 3.0 0.00 0.00 0.00 63 1015.7
20260509215036 58 16 1.0 4.0 0.00 0.00 0.00 63 1015.8
20260509214713 58 24 1.0 4.0 0.00 0.00 0.00 63 1015.6
20260509214515 58 22 1.0 4.0 0.00 0.00 0.00 63 1015.8
20260509214207 58 21 2.0 4.0 0.00 0.00 0.00 63 1015.7
20260509214015 58 21 2.0 4.0 0.00 0.00 0.00 62 1015.8
20260509213700 58 11 2.0 4.0 0.00 0.00 0.00 62 1015.6
20260509213514 58 19 2.0 4.0 0.00 0.00 0.00 62 1015.7
20260509213156 58 12 2.0 4.0 0.00 0.00 0.00 62 1015.6
20260509213036 58 20 2.0 5.0 0.00 0.00 0.00 62 1015.7
20260509212741 58 19 1.0 5.0 0.00 0.00 0.00 61 1015.7
20260509212712 58 32 2.0 5.0 0.00 0.00 0.00 61 1015.6
20260509212514 58 22 2.0 5.0 0.00 0.00 0.00 61 1015.7
20260509212014 59 22 1.0 4.0 0.00 0.00 0.00 61 1015.8
20260509211654 59 19 1.0 2.0 0.00 0.00 0.00 60 1015.7
20260509211535 59 19 1.0 2.0 0.00 0.00 0.00 60 1015.8
20260509211149 59 19 1.0 3.0 0.00 0.00 0.00 60 1015.7
20260509211015 59 15 1.0 3.0 0.00 0.00 0.00 60 1015.8
20260509210643 59 22 1.0 3.0 0.00 0.00 0.00 60 1015.8
20260509210514 59 11 1.0 3.0 0.00 0.00 0.00 60 1015.8
20260509210148 59 9 1.0 5.0 0.00 0.00 0.00 59 1015.7
20260509210016 59 20 1.0 5.0 0.00 0.00 0.00 59 1015.8
20260509205640 59 13 1.0 5.0 0.00 0.00 0.00 59 1015.7
20260509205514 59 27 2.0 5.0 0.00 0.00 0.00 59 1015.8
20260509205218 60 32 2.0 4.0 0.00 0.00 0.00 59 1015.8
20260509205156 60 59 2.0 4.0 0.00 0.00 0.00 59 1015.7
20260509205015 60 26 2.0 4.0 0.00 0.00 0.00 59 1015.8
20260509204516 60 24 2.0 4.0 0.00 0.00 0.00 58 1015.8
20260509204142 60 26 2.0 5.0 0.00 0.00 0.00 58 1015.9
20260509204015 60 23 2.0 5.0 0.00 0.00 0.00 58 1015.8
20260509203640 60 25 2.0 5.0 0.00 0.00 0.00 57 1015.8
20260509203514 60 21 2.0 5.0 0.00 0.00 0.00 58 1015.8
20260509203237 60 15 2.0 5.0 0.00 0.00 0.00 57 1015.6
20260509203158 60 344 2.0 5.0 0.00 0.00 0.00 57 1015.7
20260509203015 60 20 2.0 5.0 0.00 0.00 0.00 57 1015.8
20260509202534 60 21 1.0 5.0 0.00 0.00 0.00 57 1015.7
20260509202131 60 23 1.0 4.0 0.00 0.00 0.00 57 1015.6
20260509202016 61 21 1.0 4.0 0.00 0.00 0.00 57 1015.7
20260509201735 62 19 2.0 5.0 0.00 0.00 0.00 55 1015.8
20260509201635 61 19 2.0 5.0 0.00 0.00 0.00 56 1015.6
20260509201514 61 27 2.0 5.0 0.00 0.00 0.00 56 1015.7
20260509201436 62 19 2.0 5.0 0.00 0.00 0.00 55 1015.8
20260509201232 61 33 2.0 5.0 0.00 0.00 0.00 56 1015.7
20260509201014 61 30 2.0 5.0 0.00 0.00 0.00 55 1015.6
20260509200647 61 28 2.0 5.0 0.00 0.00 0.00 56 1015.6
20260509200516 61 27 2.0 4.0 0.00 0.00 0.00 55 1015.8
20260509200144 61 33 2.0 5.0 0.00 0.00 0.00 55 1015.8
20260509200015 61 23 2.0 5.0 0.00 0.00 0.00 55 1015.8
20260509195536 62 25 2.0 5.0 0.00 0.00 0.00 55 1015.8
20260509195133 62 26 1.0 3.0 0.00 0.00 0.00 55 1015.8
20260509195014 62 31 1.0 3.0 0.00 0.00 0.00 55 1015.8
20260509194624 62 26 1.0 3.0 0.00 0.00 0.00 55 1015.8
20260509194514 62 27 1.0 4.0 0.00 0.00 0.00 55 1015.8
20260509194124 62 39 2.0 4.0 0.00 0.00 0.00 54 1015.8
20260509194014 62 22 2.0 4.0 0.00 0.00 0.00 54 1015.8
20260509193623 62 13 2.0 4.0 0.00 0.00 0.00 54 1015.7
20260509193515 62 21 2.0 4.0 0.00 0.00 0.00 54 1015.8
20260509193117 63 0 2.0 4.0 0.00 0.00 0.00 53 1015.7
20260509193014 63 21 2.0 4.0 0.00 0.00 0.00 53 1015.8
20260509192616 63 18 2.0 6.0 0.00 0.00 0.00 53 1015.8
20260509192514 63 21 2.0 6.0 0.00 0.00 0.00 53 1015.8
20260509192128 63 43 2.0 6.0 0.00 0.00 0.00 53 1015.7
20260509192014 63 18 2.0 6.0 0.00 0.00 0.00 52 1015.8
20260509191616 63 15 2.0 6.0 0.00 0.00 0.00 52 1015.8
20260509191515 63 17 2.0 6.0 0.00 0.00 0.00 52 1015.7
20260509191119 64 14 3.0 6.0 0.00 0.00 0.00 51 1015.7
20260509191014 64 16 3.0 6.0 0.00 0.00 0.00 51 1015.8
20260509190618 64 10 3.0 6.0 0.00 0.00 0.00 51 1015.7
20260509190515 64 11 3.0 6.0 0.00 0.00 0.00 51 1015.8
20260509190112 64 23 3.0 6.0 0.00 0.00 0.00 50 1015.6
20260509190015 64 12 2.0 6.0 0.00 0.00 0.00 50 1015.7
20260509185615 64 11 2.0 6.0 0.00 0.00 0.00 50 1015.6
20260509185535 64 16 2.0 6.0 0.00 0.00 0.00 50 1015.6
20260509185114 65 24 2.0 5.0 0.00 0.00 0.00 50 1015.6
20260509185036 64 17 2.0 5.0 0.00 0.00 0.00 49 1015.6
20260509184617 65 19 2.0 5.0 0.00 0.00 0.00 49 1015.6
20260509184514 65 11 2.0 5.0 0.00 0.00 0.00 49 1015.6
20260509184111 65 347 2.0 5.0 0.00 0.00 0.00 49 1015.5
20260509184014 65 15 2.0 5.0 0.00 0.00 0.00 49 1015.5
20260509183618 65 16 3.0 6.0 0.00 0.00 0.00 49 1015.5
20260509183514 65 14 3.0 6.0 0.00 0.00 0.00 48 1015.5
20260509183106 65 22 3.0 6.0 0.00 0.00 0.00 48 1015.4
20260509183017 65 12 3.0 6.0 0.00 0.00 0.00 48 1015.4
20260509182615 65 13 3.0 7.0 0.00 0.00 0.00 48 1015.3
20260509182513 66 18 4.0 9.0 0.00 0.00 0.00 48 1015.4
20260509182103 66 346 4.0 9.0 0.00 0.00 0.00 47 1015.3
20260509182015 66 17 4.0 9.0 0.00 0.00 0.00 47 1015.4
20260509181613 66 0 4.0 11.0 0.00 0.00 0.00 47 1015.3
20260509181515 66 15 5.0 11.0 0.00 0.00 0.00 47 1015.3
20260509181059 66 355 5.0 11.0 0.00 0.00 0.00 47 1015.2
20260509181014 66 14 5.0 11.0 0.00 0.00 0.00 47 1015.3
20260509180608 67 19 4.0 12.0 0.00 0.00 0.00 47 1015.1
20260509180514 67 13 4.0 12.0 0.00 0.00 0.00 47 1015.1
20260509180106 67 5 5.0 12.0 0.00 0.00 0.00 46 1015.0
20260509180036 67 16 5.0 12.0 0.00 0.00 0.00 46 1015.0
20260509175608 67 31 4.0 8.0 0.00 0.00 0.00 45 1015.0
20260509175514 67 20 3.0 8.0 0.00 0.00 0.00 44 1015.0
20260509175058 67 13 3.0 6.0 0.00 0.00 0.00 43 1015.0
20260509175014 67 12 2.0 6.0 0.00 0.00 0.00 44 1015.0
20260509174841 68 30 3.0 5.0 0.00 0.00 0.00 43 1015.0
20260509174655 68 282 3.0 7.0 0.00 0.00 0.00 43 1015.1
20260509174514 68 7 3.0 7.0 0.00 0.00 0.00 43 1015.1
20260509174014 68 11 3.0 7.0 0.00 0.00 0.00 43 1015.1
20260509173554 68 19 4.0 7.0 0.00 0.00 0.00 44 1015.2
20260509173535 68 12 4.0 7.0 0.00 0.00 0.00 43 1015.2
20260509173055 68 17 4.0 9.0 0.00 0.00 0.00 43 1015.2
20260509173014 68 9 4.0 9.0 0.00 0.00 0.00 43 1015.2
20260509172554 68 30 3.0 9.0 0.00 0.00 0.00 43 1015.2
20260509172514 68 12 3.0 8.0 0.00 0.00 0.00 43 1015.2
20260509172056 68 22 3.0 8.0 0.00 0.00 0.00 43 1015.2
20260509172037 68 22 3.0 8.0 0.00 0.00 0.00 43 1015.2
20260509171556 69 29 4.0 8.0 0.00 0.00 0.00 42 1015.2
20260509171514 68 23 3.0 8.0 0.00 0.00 0.00 42 1015.3
20260509171043 69 26 3.0 8.0 0.00 0.00 0.00 42 1015.3
20260509171014 69 21 3.0 8.0 0.00 0.00 0.00 42 1015.3
20260509170548 69 5 3.0 7.0 0.00 0.00 0.00 42 1015.2
20260509170514 69 18 3.0 7.0 0.00 0.00 0.00 42 1015.3
20260509170431 69 0 3.0 10.0 0.00 0.00 0.00 43 1015.4
20260509170155 69 347 3.0 10.0 0.00 0.00 0.00 43 1015.2
20260509170014 69 17 3.0 10.0 0.00 0.00 0.00 43 1015.3
20260509165604 69 26 4.0 10.0 0.00 0.00 0.00 42 1015.2
20260509165514 69 13 4.0 10.0 0.00 0.00 0.00 42 1015.2
20260509165014 69 11 3.0 10.0 0.00 0.00 0.00 43 1015.4
20260509164758 69 36 3.0 8.0 0.00 0.00 0.00 42 1015.3
20260509164737 69 347 4.0 9.0 0.00 0.00 0.00 42 1015.3
20260509164623 69 349 3.0 10.0 0.00 0.00 0.00 43 1015.3
20260509164516 69 10 3.0 10.0 0.00 0.00 0.00 43 1015.3
20260509164015 70 348 3.0 8.0 0.00 0.00 0.00 42 1015.3
20260509163514 70 2 4.0 9.0 0.00 0.00 0.00 42 1015.3
20260509163117 70 355 4.0 9.0 0.00 0.00 0.00 42 1015.3
20260509163055 69 326 4.0 9.0 0.00 0.00 0.00 41 1015.3
20260509163013 70 14 4.0 9.0 0.00 0.00 0.00 41 1015.3
20260509162514 70 6 3.0 9.0 0.00 0.00 0.00 42 1015.4
20260509162046 70 19 3.0 9.0 0.00 0.00 0.00 42 1015.3
20260509162015 70 2 3.0 9.0 0.00 0.00 0.00 42 1015.3
20260509161543 69 0 2.0 7.0 0.00 0.00 0.00 42 1015.2
20260509161513 69 16 3.0 7.0 0.00 0.00 0.00 41 1015.2
20260509161046 70 334 3.0 7.0 0.00 0.00 0.00 41 1015.2
20260509161014 70 23 3.0 7.0 0.00 0.00 0.00 41 1015.2
20260509160539 70 19 4.0 9.0 0.00 0.00 0.00 41 1015.3
20260509160513 70 20 4.0 9.0 0.00 0.00 0.00 41 1015.3
20260509160014 70 18 3.0 9.0 0.00 0.00 0.00 40 1015.3
20260509155538 70 340 2.0 8.0 0.00 0.00 0.00 41 1015.3
20260509155535 70 22 2.0 8.0 0.00 0.00 0.00 41 1015.3
20260509155228 70 14 2.0 7.0 0.00 0.00 0.00 42 1015.3
20260509155150 70 55 3.0 8.0 0.00 0.00 0.00 41 1015.4
20260509155042 69 12 2.0 6.0 0.00 0.00 0.00 41 1015.3
20260509155015 69 50 2.0 6.0 0.00 0.00 0.00 41 1015.3
20260509154946 69 20 2.0 7.0 0.00 0.00 0.00 42 1015.2
20260509154734 69 69 3.0 6.0 0.00 0.00 0.00 41 1015.3
20260509154514 69 37 3.0 6.0 0.00 0.00 0.00 41 1015.3
20260509154231 69 49 4.0 9.0 0.00 0.00 0.00 41 1015.2
20260509154014 69 25 4.0 9.0 0.00 0.00 0.00 41 1015.3
20260509153648 69 22 4.0 9.0 0.00 0.00 0.00 42 1015.2
20260509153514 70 22 4.0 9.0 0.00 0.00 0.00 42 1015.3
20260509153015 69 25 2.0 7.0 0.00 0.00 0.00 42 1015.3
20260509152514 70 22 2.0 7.0 0.00 0.00 0.00 42 1015.3
20260509152016 70 32 3.0 8.0 0.00 0.00 0.00 41 1015.4
20260509151836 70 26 2.0 7.0 0.00 0.00 0.00 41 1015.5
20260509151814 70 17 2.0 7.0 0.00 0.00 0.00 40 1015.5
20260509151759 70 9 2.0 6.0 0.00 0.00 0.00 41 1015.6
20260509151605 71 42 3.0 8.0 0.00 0.00 0.00 40 1015.4
20260509151513 71 31 3.0 8.0 0.00 0.00 0.00 40 1015.4
20260509151259 71 22 3.0 7.0 0.00 0.00 0.00 41 1015.4
20260509151036 71 23 3.0 6.0 0.00 0.00 0.00 41 1015.4
20260509150513 70 38 3.0 7.0 0.00 0.00 0.00 40 1015.6
20260509150015 70 54 2.0 6.0 0.00 0.00 0.00 41 1015.6
20260509145618 70 18 2.0 7.0 0.00 0.00 0.00 41 1015.6
20260509145514 70 52 2.0 7.0 0.00 0.00 0.00 41 1015.7
20260509145014 70 34 2.0 7.0 0.00 0.00 0.00 41 1015.5
20260509144629 69 15 2.0 5.0 0.00 0.00 0.00 42 1015.6
20260509144545 69 36 2.0 5.0 0.00 0.00 0.00 43 1015.5
20260509144514 69 27 1.0 5.0 0.00 0.00 0.00 43 1015.6
20260509144035 69 35 2.0 5.0 0.00 0.00 0.00 42 1015.7
20260509143535 70 19 3.0 9.0 0.00 0.00 0.00 42 1015.6
20260509143517 70 18 3.0 9.0 0.00 0.00 0.00 42 1015.6
20260509143157 70 25 3.0 10.0 0.00 0.00 0.00 41 1015.7
20260509143103 70 5 3.0 10.0 0.00 0.00 0.00 42 1015.7
20260509143015 70 17 3.0 10.0 0.00 0.00 0.00 42 1015.8
20260509142514 70 42 2.0 10.0 0.00 0.00 0.00 41 1015.7
20260509142034 71 127 2.0 6.0 0.00 0.00 0.00 41 1015.7
20260509142014 71 52 2.0 6.0 0.00 0.00 0.00 41 1015.8
20260509141536 71 5 2.0 5.0 0.00 0.00 0.00 40 1015.7
20260509141514 72 33 2.0 9.0 0.00 0.00 0.00 40 1015.8
20260509141040 72 51 2.0 4.0 0.00 0.00 0.00 40 1015.8
20260509141014 72 348 2.0 9.0 0.00 0.00 0.00 40 1015.9
20260509140553 70 355 4.0 10.0 0.00 0.00 0.00 42 1015.9
20260509140538 72 22 3.0 9.0 0.00 0.00 0.00 40 1015.8
20260509140516 72 12 3.0 10.0 0.00 0.00 0.00 40 1015.8
20260509140035 70 19 4.0 10.0 0.00 0.00 0.00 42 1016.0
20260509135907 71 350 3.0 9.0 0.00 0.00 0.00 40 1016.0
20260509135704 70 23 3.0 10.0 0.00 0.00 0.00 41 1015.8
20260509135514 70 29 2.0 10.0 0.00 0.00 0.00 41 1015.9
20260509135049 71 350 3.0 9.0 0.00 0.00 0.00 40 1016.0
20260509135014 71 30 3.0 9.0 0.00 0.00 0.00 40 1016.0
20260509134534 71 24 4.0 9.0 0.00 0.00 0.00 41 1016.1
20260509134328 71 63 3.0 9.0 0.00 0.00 0.00 41 1016.0
20260509134035 72 22 3.0 9.0 0.00 0.00 0.00 41 1016.1
20260509133554 70 330 2.0 6.0 0.00 0.00 0.00 42 1016.1
20260509133536 70 347 2.0 6.0 0.00 0.00 0.00 42 1016.1
20260509133359 71 339 2.0 5.0 0.00 0.00 0.00 39 1016.2
20260509133255 71 278 3.0 8.0 0.00 0.00 0.00 41 1016.2
20260509133123 71 339 2.0 5.0 0.00 0.00 0.00 39 1016.2
20260509133015 71 340 2.0 5.0 0.00 0.00 0.00 39 1016.3
20260509132535 71 353 3.0 8.0 0.00 0.00 0.00 41 1016.2
20260509132035 72 3 3.0 10.0 0.00 0.00 0.00 41 1016.3
20260509131530 71 0 3.0 10.0 0.00 0.00 0.00 42 1016.3
20260509131513 71 7 3.0 10.0 0.00 0.00 0.00 41 1016.4
20260509131049 71 18 4.0 10.0 0.00 0.00 0.00 42 1016.5
20260509131034 71 10 4.0 9.0 0.00 0.00 0.00 42 1016.5